Weather reports worldwide

Advertisment
Salla, Finland (2849): temperature & dewpoint: 29.06.2020 01:00:00 - 05.07.2020 01:00:00 (EEST)Salla, Finland (2849): wind speed & gusts: 29.06.2020 01:00:00 - 05.07.2020 01:00:00 (EEST)Salla, Finland (2849): wind direction: 29.06.2020 01:00:00 - 05.07.2020 01:00:00 (EEST)Salla, Finland (2849): reduced air pressure: 29.06.2020 01:00:00 - 05.07.2020 01:00:00 (EEST)Salla, Finland (2849): visibility: 29.06.2020 01:00:00 - 05.07.2020 01:00:00 (EEST)Salla, Finland (2849): precipitation: 29.06.2020 01:00:00 - 05.07.2020 01:00:00 (EEST)
Date & Time tt [°C] td [°C] ff [km/h] ff [kn] fx [km/h] fx [kn] dd ppp [hPa] vv [km] rr [mm]
05.07.2020 01:00:00 - - - - - - - - - -
05.07.2020 00:00:00 10,2 10,1 9 5 15 8 E 999,2 20 0,0
04.07.2020 23:00:00 10,8 10,8 9 5 13 7 E 999,9 20 0,0
04.07.2020 22:00:00 11,3 11,3 5 3 12 7 SSE 1000,7 20 0,0
04.07.2020 21:00:00 11,9 11,9 5 3 9 5 NE 1001,0 20 0,0
04.07.2020 20:00:00 11,9 11,9 2 1 26 14 N 1001,8 20 0,1
04.07.2020 19:00:00 11,8 10,1 18 10 40 22 SW 1002,6 7 0,7
04.07.2020 18:00:00 17,1 6,2 17 9 34 18 SSE 1001,5 20 0,0
04.07.2020 17:00:00 18,1 5,2 19 10 37 20 S 1001,7 20 0,0
04.07.2020 16:00:00 17,0 5,4 14 8 39 21 S 1002,0 20 0,0
04.07.2020 15:00:00 17,8 4,4 18 10 35 19 S 1002,0 20 0,0
04.07.2020 14:00:00 16,5 5,0 21 11 47 25 S 1002,3 20 0,0
04.07.2020 13:00:00 15,6 6,1 19 10 46 25 S 1002,5 20 0,0
04.07.2020 12:00:00 15,5 6,4 26 14 50 27 S 1002,5 20 0,0
04.07.2020 11:00:00 14,0 7,2 23 12 49 26 S 1002,6 20 0,0
04.07.2020 10:00:00 12,6 6,6 24 13 46 25 S 1002,6 20 0,0
04.07.2020 09:00:00 12,6 8,2 21 12 49 26 S 1002,5 20 0,0
04.07.2020 08:00:00 10,8 8,0 19 11 35 19 S 1002,9 20 0,0
04.07.2020 07:00:00 10,3 8,0 18 10 35 19 SSE 1002,9 20 0,0
04.07.2020 06:00:00 9,8 8,2 13 7 29 16 SSE 1003,0 20 0,0
04.07.2020 05:00:00 8,7 8,6 10 5 18 10 SE 1003,1 20 0,0
04.07.2020 04:00:00 6,9 - 9 5 14 7 SE 1003,5 20 0,0
04.07.2020 03:00:00 7,5 - 7 4 17 9 SE 1003,6 20 0,0
04.07.2020 02:00:00 7,3 - 11 6 18 10 SE 1004,0 14 0,0
04.07.2020 01:00:00 8,0 - 7 4 16 8 SSE 1003,8 20 0,0
04.07.2020 00:00:00 8,9 - 9 5 13 7 SSE 1003,4 20 0,0
03.07.2020 23:00:00 8,7 8,7 7 4 11 6 SE 1003,3 20 0,0
03.07.2020 22:00:00 10,1 10,1 5 3 19 10 SSE 1003,0 20 0,1
03.07.2020 21:00:00 11,4 11,4 10 5 18 10 SE 1002,7 20 0,0
03.07.2020 20:00:00 11,1 11,1 11 6 26 14 SE 1002,5 20 0,1
03.07.2020 19:00:00 11,4 10,2 11 6 33 18 ESE 1002,7 20 0,0
03.07.2020 18:00:00 11,2 9,9 13 7 32 17 ESE 1002,9 18 0,0
03.07.2020 17:00:00 11,7 8,6 15 8 34 18 E 1002,9 20 0,0
03.07.2020 16:00:00 12,4 7,4 19 10 40 21 E 1003,2 20 0,2
03.07.2020 15:00:00 12,5 7,8 13 7 49 26 ESE 1003,6 20 0,0
03.07.2020 14:00:00 14,3 5,7 17 9 35 19 ESE 1003,3 20 0,0
03.07.2020 13:00:00 14,1 6,7 11 6 22 12 E 1003,8 20 0,0
03.07.2020 12:00:00 13,8 5,7 8 4 18 10 E 1004,1 20 0,0
03.07.2020 11:00:00 12,6 6,5 9 5 18 10 ESE 1004,4 20 0,0
03.07.2020 10:00:00 12,3 6,2 10 5 19 11 ESE 1004,9 20 0,0
03.07.2020 09:00:00 12,0 7,2 8 5 18 10 ESE 1005,0 20 0,0
03.07.2020 08:00:00 12,2 6,7 8 4 17 9 SE 1005,1 10 0,0
03.07.2020 07:00:00 10,7 7,5 6 4 10 5 SE 1005,2 20 0,0
03.07.2020 06:00:00 10,1 7,2 4 2 13 7 ESE 1005,0 20 0,0
03.07.2020 05:00:00 7,2 6,5 11 6 14 8 SSE 1005,4 20 0,0
03.07.2020 04:00:00 3,4 3,4 8 4 14 8 SE 1005,6 20 0,0
03.07.2020 03:00:00 4,1 - 10 6 14 7 SE 1005,3 20 0,0
03.07.2020 02:00:00 3,3 3,3 8 5 14 8 SE 1005,3 20 0,0
03.07.2020 01:00:00 4,3 4,3 9 5 12 6 S 1005,0 20 0,0
03.07.2020 00:00:00 6,7 6,6 5 3 13 7 ESE 1004,3 20 0,0
02.07.2020 23:00:00 7,9 6,6 8 4 13 7 SSE 1003,7 20 0,0
02.07.2020 22:00:00 12,3 6,1 8 4 19 10 S 1002,9 20 0,0
02.07.2020 21:00:00 13,2 5,7 13 7 27 15 SSW 1002,1 20 0,0
02.07.2020 20:00:00 12,9 5,6 8 5 27 15 SSW 1001,8 20 0,0
02.07.2020 19:00:00 13,9 4,1 14 8 29 16 SW 1001,0 20 0,0
02.07.2020 18:00:00 14,0 4,6 11 6 30 16 SW 1000,5 20 0,0
02.07.2020 17:00:00 14,2 5,1 10 6 34 18 SW 999,8 20 0,0
02.07.2020 16:00:00 14,7 3,9 19 10 38 21 SSW 999,1 20 0,0
02.07.2020 15:00:00 13,9 6,0 13 7 36 20 WSW 998,6 20 0,0
02.07.2020 14:00:00 14,3 3,8 18 10 31 17 SSW 997,7 20 0,0
02.07.2020 13:00:00 13,9 6,8 13 7 40 22 W 997,1 20 0,0
02.07.2020 12:00:00 13,1 5,0 16 9 34 18 SSW 996,5 20 0,0
02.07.2020 11:00:00 13,7 4,6 12 7 33 18 SSW 995,7 20 0,0
02.07.2020 10:00:00 13,2 4,3 14 8 37 20 SSW 994,9 20 0,0
02.07.2020 09:00:00 13,0 4,7 16 9 37 20 SSW 994,3 20 0,0
02.07.2020 08:00:00 12,3 5,5 19 11 36 20 S 993,8 20 0,0
02.07.2020 07:00:00 11,6 11,1 12 7 23 12 SSW 993,5 20 0,0
02.07.2020 06:00:00 11,3 10,9 10 5 21 11 S 993,0 20 0,0
02.07.2020 05:00:00 9,8 - 11 6 18 10 S 992,8 20 0,0
02.07.2020 04:00:00 7,9 - 7 4 13 7 SSE 992,5 20 0,0
02.07.2020 03:00:00 7,5 - 10 5 15 8 SSE 992,4 20 0,0
02.07.2020 02:00:00 7,3 7,3 9 5 24 13 S 992,1 20 0,0
02.07.2020 01:00:00 8,8 8,8 8 5 26 14 SSW 991,5 20 0,0
02.07.2020 00:00:00 9,2 9,2 11 6 24 13 SSW 991,1 20 0,0
01.07.2020 23:00:00 9,2 9,2 9 5 24 13 SSW 990,5 20 0,0
01.07.2020 22:00:00 9,2 9,2 10 5 28 15 SSW 989,8 9 0,0
01.07.2020 21:00:00 9,6 9,6 11 6 34 18 SSW 989,1 20 0,0
01.07.2020 20:00:00 10,1 10,1 15 8 35 19 SSW 988,2 17 0,2
01.07.2020 19:00:00 10,9 10,9 9 5 27 14 SW 987,4 5 0,4
01.07.2020 18:00:00 11,2 11,2 14 8 29 16 SSW 986,6 8 0,2
01.07.2020 17:00:00 11,3 11,3 14 8 40 21 SSW 985,6 20 0,3
01.07.2020 16:00:00 11,1 11,1 14 8 42 23 SSW 984,6 20 0,2
01.07.2020 15:00:00 10,6 10,6 18 10 40 22 SSW 983,5 20 0,3
01.07.2020 14:00:00 9,7 9,7 18 10 46 25 SW 982,4 13 1,2
01.07.2020 13:00:00 10,1 10,1 19 10 52 28 SSW 980,4 8 1,5
01.07.2020 12:00:00 12,5 12,5 16 8 36 19 SSW 977,9 4,6 0,9
01.07.2020 11:00:00 12,5 12,5 10 5 22 12 SSW 976,6 10 0,9
01.07.2020 10:00:00 12,3 - 6 3 10 5 SW 975,7 3,6 0,6
01.07.2020 09:00:00 12,4 12,4 5 3 11 6 W 975,1 6 0,7
01.07.2020 08:00:00 12,3 - 6 3 15 8 N 975,2 3,1 1,2
01.07.2020 07:00:00 11,8 - 10 5 21 12 NE 975,9 4,2 0,0
01.07.2020 06:00:00 11,8 - 10 5 26 14 NNE 976,5 16 0,1
01.07.2020 05:00:00 11,7 - 12 6 28 15 NE 977,4 4,8 0,1
01.07.2020 04:00:00 11,6 - 14 7 27 14 ENE 978,7 7 0,6
01.07.2020 03:00:00 11,6 - 11 6 25 13 NE 980,3 3,2 1,6
01.07.2020 02:00:00 11,3 - 10 6 22 12 NE 982,0 5 2,7
01.07.2020 01:00:00 11,2 - 12 6 25 13 NE 983,7 9 2,0
01.07.2020 00:00:00 11,5 - 7 4 24 13 NE 985,8 6 1,9
30.06.2020 23:00:00 12,0 12,0 11 6 21 11 E 987,0 7 1,1
30.06.2020 22:00:00 12,4 12,4 12 7 22 12 E 988,0 10 0,3
30.06.2020 21:00:00 12,5 12,5 12 7 27 14 ESE 989,3 12 0,2
30.06.2020 20:00:00 12,6 12,6 11 6 28 15 SE 990,2 15 0,5
30.06.2020 19:00:00 12,8 12,8 14 7 27 15 SE 990,9 11 0,4
30.06.2020 18:00:00 13,1 13,1 13 7 32 17 SE 991,5 19 0,6
30.06.2020 17:00:00 13,7 13,7 8 5 18 10 ESE 991,9 5 1,2
30.06.2020 16:00:00 13,5 13,5 10 6 28 15 SSE 992,7 3,2 0,2
30.06.2020 15:00:00 13,3 13,3 14 8 36 20 SSE 993,2 10 0,0
30.06.2020 14:00:00 15,5 12,3 11 6 23 12 S 993,2 20 0,0
30.06.2020 13:00:00 15,5 12,3 13 7 31 17 S 993,6 20 0,0
30.06.2020 12:00:00 14,8 12,1 17 9 31 17 S 994,0 20 0,0
30.06.2020 11:00:00 14,4 13,0 16 9 29 16 S 994,3 20 0,1
30.06.2020 10:00:00 13,8 13,4 14 8 29 16 S 994,7 20 0,4
30.06.2020 09:00:00 12,9 12,8 18 10 40 22 SSE 995,3 20 0,1
30.06.2020 08:00:00 13,0 13,0 21 11 41 22 SSE 995,9 20 0,0
30.06.2020 07:00:00 12,9 12,9 18 10 33 18 S 996,6 20 0,8
30.06.2020 06:00:00 12,8 12,8 13 7 28 15 SSE 997,6 8 1,0
30.06.2020 05:00:00 12,9 12,9 13 7 25 14 S 998,1 20 0,1
30.06.2020 04:00:00 12,3 - 8 4 16 9 SSE 998,9 20 0,1
30.06.2020 03:00:00 12,1 - 10 5 24 13 SSE 999,9 6 2,1
30.06.2020 02:00:00 12,5 12,5 9 5 25 14 SSE 1000,9 18 1,9
30.06.2020 01:00:00 12,6 12,6 14 7 32 17 SE 1001,8 18 1,3
30.06.2020 00:00:00 12,7 - 6 3 18 10 SE 1002,7 4,2 3,2
29.06.2020 23:00:00 12,8 12,5 5 3 21 11 SW 1003,6 20 0,7
29.06.2020 22:00:00 14,5 11,4 5 3 21 12 S 1003,9 20 0,0
29.06.2020 21:00:00 17,7 6,8 8 4 20 11 SSE 1004,1 20 0,0
29.06.2020 20:00:00 19,5 4,9 11 6 29 16 S 1004,7 20 0,0
29.06.2020 19:00:00 20,7 3,9 14 8 29 16 S 1005,0 20 0,0
29.06.2020 18:00:00 20,2 3,8 13 7 28 15 S 1006,0 20 0,0
29.06.2020 17:00:00 20,6 3,6 15 8 32 17 SSE 1006,7 20 0,0
29.06.2020 16:00:00 20,5 3,6 13 7 33 18 S 1007,6 20 0,0
29.06.2020 15:00:00 21,0 3,0 14 7 29 16 SSW 1008,1 20 0,0
29.06.2020 14:00:00 19,6 3,4 12 6 32 17 S 1008,9 20 0,0
29.06.2020 13:00:00 19,4 3,0 12 7 32 17 S 1009,6 20 0,0
29.06.2020 12:00:00 20,2 3,0 13 7 44 24 SSW 1010,1 20 0,0
29.06.2020 11:00:00 19,4 2,2 12 7 26 14 S 1010,6 20 0,0
29.06.2020 10:00:00 18,2 1,7 15 8 27 14 S 1011,4 20 0,0
29.06.2020 09:00:00 17,6 3,1 10 6 19 10 S 1012,0 20 0,0
29.06.2020 08:00:00 16,9 4,9 11 6 22 12 SSW 1012,6 20 0,0
29.06.2020 07:00:00 14,9 6,2 8 4 16 9 S 1013,4 20 0,0
29.06.2020 06:00:00 12,8 6,8 7 4 14 8 SSE 1014,0 20 0,0
29.06.2020 05:00:00 9,4 7,0 5 3 13 7 SE 1014,6 20 0,0
29.06.2020 04:00:00 7,6 6,6 9 5 13 7 SE 1015,0 20 0,0
29.06.2020 03:00:00 7,1 5,9 8 4 18 10 SSE 1015,4 20 0,0
29.06.2020 02:00:00 7,2 4,1 13 7 20 11 SSE 1015,6 20 0,0
29.06.2020 01:00:00 8,2 4,9 12 6 19 10 SSE 1015,8 20 0,0

tt = temperature
td = dewpoint
ff = wind speed
fx = gusts
dd = wind direction
ppp = reduced air pressure
vv = visibility
rr = precipitation

Next stations